User: anonymous   Login
Location: Caltech
(34.1382°N, 118.1253°W)
Time: 02:47:09
(UTC-07:00)
Language:

ERBS - Orbit

View from above orbital plane
View from above orbital plane
View from above satellite
View from above satellite

Ground track
Ground track

The orbit data is extracted from the following two-line orbital elements,

1 15354U 84108B   15209.14645161  .00003160  00000-0  97603-4 0  9993
2 15354 057.0094 215.8028 0008760 220.4060 139.6342 15.36534351691859
Epoch (UTC): 28 July 2015 03:30:53
Eccentricity: 0.0008760
inclination: 57.0094°
perigee height: 450 km
apogee height: 462 km
right ascension of ascending node: 215.8028°
argument of perigee: 220.4060°
revolutions per day: 15.36534351
mean anomaly at epoch: 139.6342°
orbit number at epoch: 69185

The dashed part of the orbit path shows where the satellite is in the earth's shadow,  

DLR